Tracking 19476 objects as of 18-Jan-2019
HD Live streaming from Space Station
objects crossing your sky now

DMSP 5D-2 F8 (USA 26)

Track DMSP 5D-2 F8 (USA 26) now!
10-day predictions
DMSP 5D-2 F8 (USA 26) is classified as:


NORAD ID: 18123
Int'l Code: 1987-053A
Perigee: 826.9 km
Apogee: 847.1 km
Inclination: 98.7 °
Period: 101.5 minutes
Semi major axis: 7207 km
RCS: 2.6045 m2 (large)
Launch date: June 20, 1987
Source: United States (US)
Launch site: AIR FORCE WESTERN TEST RANGE (AFWTR)
aabbcc
Your satellite tracking list
Your tracking list is empty




NASA's NSSDC Master Catalog

Two Line Element Set (TLE):
1 18123U 87053A   19017.57317560  .00000000  00000-0  21170-4 0  9995
2 18123  98.7254 208.3936 0013987  29.5909 330.6056 14.18675754633075
Source of the keplerian elements: AFSPC